Total_Precipitation_Accumulation
1.70 1.80 1.74 1.91 1.94 2.03 2.20 2.49 2.54 2.68 2.70 2.59 2.24 1.95 1.87 1.75 1.62 1.75 1.95 1.81 1.63 1.81 2.26 2.56 2.37 2.09 1.89 1.78 1.62 1.48 1.35 1.32 1.19 0.91 0.82 0.89 0.87 0.81 0.75 0.69 0.62 0.55 0.48
2.24 2.41 2.40 2.39 2.21 2.20 2.43 2.66 2.79 3.21 3.11 2.94 2.45 2.21 2.00 1.94 1.73 1.67 1.90 2.06 1.72 1.63 1.87 2.35 2.61 2.45 2.23 2.07 1.90 1.70 1.54 1.42 1.34 1.00 0.80 0.83 0.89 0.86 0.81 0.76 0.66 0.54 0.44
2.54 2.69 2.66 2.55 2.53 2.52 2.66 2.82 2.97 3.09 2.85 2.72 2.57 2.40 2.16 1.97 1.71 1.65 1.76 1.95 1.81 1.65 1.73 1.96 2.32 2.47 2.41 2.33 2.24 2.03 1.70 1.49 1.30 1.07 0.81 0.73 0.76 0.79 0.79 0.79 0.70 0.55 0.40
2.72 2.97 2.78 2.65 2.93 2.80 2.91 3.23 3.22 3.19 3.06 2.89 2.72 2.49 2.28 2.06 1.67 1.56 1.55 1.77 2.03 1.78 1.77 1.93 2.08 2.17 2.42 2.59 2.58 2.44 2.15 1.76 1.38 1.16 0.95 0.89 0.88 0.86 0.82 0.75 0.71 0.55 0.39
2.61 2.85 2.71 2.73 2.84 3.08 3.12 2.92 3.35 3.33 3.21 3.06 2.58 2.34 2.04 1.81 1.62 1.46 1.48 1.53 1.77 1.66 1.63 1.73 1.83 1.93 2.35 2.89 3.05 2.97 2.79 2.43 1.92 1.60 1.55 1.50 1.45 1.26 1.04 0.86 0.72 0.58 0.42
2.48 2.83 2.66 2.60 2.73 2.99 2.96 2.97 3.25 3.23 2.99 3.00 2.45 2.07 1.88 1.55 1.51 1.52 1.36 1.39 1.44 1.26 1.33 1.56 1.98 1.71 1.83 2.19 2.62 2.98 3.15 3.11 2.75 2.65 2.71 2.48 2.29 1.88 1.37 1.06 0.84 0.71 0.57
2.33 2.68 2.48 2.70 2.67 2.71 2.70 2.75 3.00 3.06 2.79 2.87 2.73 2.23 1.70 1.33 1.28 1.31 1.34 1.38 1.26 1.31 1.59 1.83 2.01 2.02 1.85 1.66 1.77 2.25 2.92 3.32 3.13 2.94 3.09 3.16 3.07 2.49 1.75 1.33 1.02 0.82 0.69
2.15 2.30 2.44 2.34 2.42 2.50 2.49 2.54 2.77 2.70 2.40 2.55 2.67 2.61 1.99 1.61 1.25 0.99 1.27 1.33 1.27 1.45 1.54 1.58 1.85 2.13 2.12 2.23 1.74 1.58 2.16 2.87 3.17 3.03 2.91 3.13 3.20 2.63 1.98 1.70 1.36 1.04 0.89
1.96 2.03 2.14 2.17 2.21 2.13 2.23 2.39 2.38 2.37 2.23 2.19 2.38 2.59 2.24 1.81 1.46 1.07 0.94 1.04 1.24 1.40 1.43 1.56 1.56 1.70 1.79 2.15 2.12 1.77 1.65 1.91 2.56 3.15 3.17 3.06 2.97 2.55 2.15 1.97 1.75 1.38 1.16
1.72 1.74 1.75 1.78 1.86 1.89 2.08 1.92 1.95 2.14 2.19 2.05 2.12 2.13 2.07 2.07 1.91 1.38 1.03 0.98 1.18 1.26 1.24 1.21 1.33 1.52 1.63 1.80 1.92 1.81 1.61 1.52 1.84 2.50 2.97 3.04 2.82 2.37 2.12 2.13 2.27 2.03 1.56
1.61 1.54 1.59 1.58 1.57 1.61 1.72 1.74 1.96 1.96 2.01 1.98 1.93 1.91 1.98 1.99 1.86 1.66 1.32 1.19 1.14 1.01 1.05 1.11 1.23 1.44 1.62 1.72 1.88 1.69 1.68 1.52 1.58 1.77 2.16 2.51 2.61 2.50 2.24 2.24 2.61 2.72 2.35
1.40 1.40 1.42 1.42 1.40 1.45 1.59 1.63 1.67 1.67 1.73 1.78 1.73 1.70 1.80 1.74 1.66 1.75 1.50 1.37 1.32 1.08 1.09 1.13 1.17 1.29 1.37 1.48 1.39 1.47 1.45 1.31 1.30 1.31 1.35 1.64 1.95 2.11 2.16 2.28 2.61 2.84 2.83
1.17 1.14 1.21 1.25 1.23 1.30 1.43 1.49 1.45 1.47 1.53 1.58 1.53 1.58 1.65 1.59 1.58 1.73 1.78 1.61 1.49 1.24 1.24 1.22 1.13 1.22 1.19 1.40 1.35 1.21 1.04 0.96 0.89 0.88 0.93 1.07 1.25 1.45 1.63 1.89 2.26 2.57 2.73
1.05 1.04 1.06 1.08 1.13 1.16 1.21 1.38 1.40 1.41 1.47 1.50 1.46 1.66 1.63 1.48 1.50 1.62 1.79 1.95 1.85 1.56 1.50 1.36 1.16 1.09 1.16 1.23 1.16 0.97 0.79 0.72 0.68 0.66 0.64 0.72 0.86 0.98 1.11 1.31 1.59 1.82 2.01
1.23 1.20 1.14 1.12 1.16 1.23 1.31 1.40 1.46 1.46 1.54 1.57 1.63 1.74 1.64 1.49 1.45 1.52 1.78 1.98 2.12 1.92 1.67 1.47 1.33 1.07 1.08 1.03 0.99 0.90 0.89 0.71 0.55 0.53 0.52 0.50 0.54 0.64 0.73 0.83 0.96 1.12 1.24
1.33 1.31 1.28 1.20 1.16 1.20 1.30 1.39 1.49 1.51 1.57 1.66 1.69 1.77 1.80 1.67 1.67 1.69 1.81 1.97 2.11 2.15 1.84 1.54 1.50 1.24 1.11 0.93 0.90 0.85 0.79 0.73 0.56 0.46 0.46 0.44 0.43 0.47 0.51 0.58 0.66 0.74 0.84
1.21 1.15 1.09 1.04 1.01 1.00 1.03 1.12 1.17 1.23 1.29 1.37 1.39 1.50 1.65 1.78 1.79 1.79 1.83 1.87 1.99 2.16 1.92 1.82 1.90 1.75 1.52 1.26 1.07 0.93 0.77 0.75 0.65 0.52 0.43 0.43 0.43 0.44 0.46 0.51 0.53 0.59 0.66
0.91 0.86 0.86 0.85 0.79 0.76 0.77 0.81 0.86 0.98 1.09 1.18 1.25 1.31 1.31 1.39 1.49 1.55 1.65 1.77 1.89 2.10 2.03 2.07 2.22 2.18 1.92 1.56 1.38 1.21 0.91 0.78 0.71 0.63 0.48 0.39 0.41 0.44 0.45 0.48 0.51 0.54 0.57
0.67 0.66 0.71 0.73 0.67 0.66 0.69 0.73 0.79 0.89 0.96 1.02 1.06 1.06 1.02 1.06 1.13 1.25 1.32 1.47 1.65 1.91 2.04 2.17 2.36 2.32 2.07 1.80 1.65 1.36 1.15 1.07 0.84 0.75 0.62 0.47 0.39 0.41 0.45 0.47 0.52 0.58 0.59
0.58 0.60 0.64 0.66 0.65 0.69 0.76 0.87 0.94 0.95 0.95 0.90 0.84 0.79 0.79 0.89 0.97 1.08 1.19 1.25 1.39 1.60 1.78 1.98 2.25 2.29 2.14 2.02 1.91 1.59 1.38 1.29 1.11 0.89 0.81 0.60 0.49 0.44 0.44 0.47 0.51 0.58 0.67
0.55 0.60 0.68 0.73 0.74 0.75 0.71 0.79 0.87 0.88 0.91 0.86 0.77 0.65 0.60 0.67 0.75 0.84 0.88 1.05 1.20 1.39 1.52 1.72 2.00 2.24 2.10 1.99 1.88 1.76 1.59 1.53 1.42 1.21 1.16 0.89 0.71 0.58 0.46 0.45 0.49 0.58 0.74
0.62 0.63 0.64 0.67 0.66 0.54 0.55 0.61 0.69 0.75 0.78 0.79 0.74 0.63 0.53 0.51 0.56 0.63 0.73 0.81 0.93 1.10 1.28 1.55 1.78 1.98 1.90 1.83 1.91 1.95 1.89 1.69 1.63 1.51 1.57 1.46 1.22 1.06 0.80 0.55 0.47 0.50 0.64
0.63 0.69 0.65 0.63 0.62 0.62 0.59 0.58 0.56 0.62 0.68 0.65 0.68 0.71 0.56 0.46 0.54 0.57 0.63 0.62 0.70 0.80 0.94 1.21 1.45 1.63 1.80 1.80 1.98 2.10 2.18 2.07 1.93 1.82 1.93 2.00 1.87 1.70 1.12 0.88 0.78 0.62 0.60
0.67 0.70 0.70 0.66 0.71 0.69 0.58 0.54 0.54 0.55 0.60 0.60 0.61 0.62 0.65 0.66 0.60 0.58 0.66 0.67 0.61 0.63 0.70 0.77 0.98 1.31 1.82 2.08 2.05 2.12 2.31 2.32 2.18 2.11 2.15 2.32 2.16 2.07 1.64 1.18 0.92 0.67 0.58
0.73 0.70 0.71 0.67 0.67 0.67 0.53 0.43 0.42 0.46 0.53 0.56 0.56 0.54 0.54 0.60 0.61 0.52 0.59 0.63 0.62 0.62 0.63 0.70 0.84 1.09 1.37 1.69 1.87 1.93 2.04 2.18 2.33 2.31 2.26 2.35 2.31 2.19 2.18 1.86 1.28 0.89 0.62
0.80 0.76 0.72 0.69 0.67 0.70 0.58 0.41 0.40 0.45 0.54 0.58 0.64 0.59 0.47 0.44 0.46 0.45 0.54 0.62 0.62 0.62 0.66 0.69 0.72 0.83 1.01 1.20 1.26 1.28 1.39 1.52 1.74 1.92 1.87 2.02 2.27 2.31 2.49 2.49 1.99 1.39 1.00